Decoded Metar for PARY (RUBY in AK, USA) (IATA:RBY) | Meteo·Mobile Aviation Weather
aviador You're here:

PARY Decoded Metar

RUBY in AK, USA
Report Time2018-12-16 10:56:00
UTC Time2018-12-16 11:38:51
Flight Rules vfr VFR
Wind290° at 03 kt
W.Decomp.*RWY 21: 1.5 kt HW 2.6 kt RCW
W.Rank290° ranks 16
Current wind is below 290° avg. (5.1)
Visibility9999 m
Phenomena:N/A
Clouds:N/A
Expected CloudBase > 2,000 ft AGL from Temp-Dew spread
CeilingNone
Temp-31°C (ISA -45)
Dew Point-36°C (61% RH)
AAT-36.0°C
QNH995 hPa
Density Alt-4,577 ft
Elevation653 ft
Report Wrong Elevation
Raw Report
PARY 161056Z AUTO 29003KT 10SM CLR M31/M36 A2939=

Extra information for PARY:More info

Metar Taf Metar & Taf Last 4 Metars F.Rules Stats Wind Profile Meteogram Temp Stats Airport Information Weather charts Add Link Nearby VenuesMetar ALERT Operation Metar Decoded Social comments

AIRNAV info for PARY